Tracking 18843 objects as of 20-November-2017
HD Live streaming from Space Station
objects crossing your sky now

COSMOS 1796

Track COSMOS 1796 now!
10-day predictions
COSMOS 1796 is classified as:


NORAD ID: 17140
Int'l Code: 1986-092C
Perigee: 1,461.7 km
Apogee: 1,485.0 km
Inclination: 74.0 °
Period: 115.2 minutes
Semi major axis: 7844 km
RCS: 0.7098 m2 (medium)
Launch date: November 21, 1986
Source: Commonwealth of Independent States (former USSR) (CIS)
Launch site: PLESETSK MISSILE AND SPACE COMPLEX (PKMTR)
aabbcc
Your satellite tracking list
Your tracking list is empty




NASA's NSSDC Master Catalog

Two Line Element Set (TLE):
1 17140U 86092C   17323.60432942 +.00000000 +00000-0 +10756-3 0  9996
2 17140 074.0114 171.8993 0014821 098.9633 321.8579 12.49596027413989
Source of the keplerian elements: AFSPC